Time,TemperatureF,DewpointF,PressureIn,WindDirection,WindDirectionDegrees,WindSpeedMPH,WindSpeedGustMPH,Humidity,HourlyPrecipIn,Conditions,Clouds,dailyrainin,SoftwareType,DateUTC
2013-02-23 00:01:00,34.0,30.0,29.98,NNW,346,0.0,10.0,85,0.00,,,0.01,,2013-02-23 06:01:00,
2013-02-23 00:11:00,34.0,30.0,29.98,NNW,346,0.0,10.0,85,0.00,,,0.01,,2013-02-23 06:11:00,
2013-02-23 00:22:00,33.0,29.0,29.98,NNW,347,2.0,10.0,86,0.00,,,0.01,,2013-02-23 06:22:00,
2013-02-23 00:31:00,33.0,29.0,29.98,NNW,344,1.0,7.0,85,0.01,,,0.01,,2013-02-23 06:31:00,
2013-02-23 00:41:00,33.0,29.0,29.98,NNW,344,1.0,7.0,85,0.01,,,0.01,,2013-02-23 06:41:00,
2013-02-23 00:51:00,32.0,28.0,29.98,North,353,3.0,7.0,84,0.01,,,0.01,,2013-02-23 06:51:00,
2013-02-23 01:01:00,32.0,28.0,29.98,North,353,3.0,7.0,84,0.01,,,0.01,,2013-02-23 07:01:00,
2013-02-23 01:11:00,31.0,27.0,29.98,North,353,0.0,8.0,84,0.00,,,0.00,,2013-02-23 07:11:00,
2013-02-23 01:21:00,31.0,27.0,29.98,North,353,0.0,8.0,84,0.00,,,0.00,,2013-02-23 07:21:00,
2013-02-23 01:32:00,31.0,27.0,29.98,North,353,0.0,8.0,84,0.00,,,0.00,,2013-02-23 07:32:00,
2013-02-23 01:41:00,31.0,27.0,29.98,North,353,0.0,8.0,84,0.00,,,0.00,,2013-02-23 07:41:00,
2013-02-23 01:51:00,30.0,26.0,29.97,North,352,0.0,4.0,85,0.00,,,0.00,,2013-02-23 07:51:00,
2013-02-23 02:01:00,30.0,26.0,29.98,North,353,2.0,6.0,86,0.00,,,0.00,,2013-02-23 08:01:00,
2013-02-23 02:11:00,30.0,26.0,29.98,North,353,2.0,6.0,86,0.00,,,0.00,,2013-02-23 08:11:00,
2013-02-23 02:21:00,30.0,27.0,29.97,North,353,0.0,6.0,87,0.00,,,0.00,,2013-02-23 08:21:00,
2013-02-23 02:31:00,29.0,26.0,29.96,North,352,0.0,3.0,87,0.00,,,0.00,,2013-02-23 08:31:00,
2013-02-23 02:42:00,29.0,26.0,29.96,North,352,0.0,3.0,87,0.00,,,0.00,,2013-02-23 08:42:00,
2013-02-23 02:52:00,29.0,26.0,29.96,North,353,0.0,3.0,87,0.00,,,0.00,,2013-02-23 08:52:00,
2013-02-23 03:01:00,28.0,25.0,29.96,North,353,0.0,2.0,88,0.00,,,0.00,,2013-02-23 09:01:00,
2013-02-23 03:11:00,28.0,25.0,29.96,North,353,0.0,2.0,88,0.00,,,0.00,,2013-02-23 09:11:00,
2013-02-23 03:21:00,29.0,26.0,29.96,North,352,1.0,2.0,89,0.00,,,0.00,,2013-02-23 09:21:00,
2013-02-23 03:31:00,29.0,26.0,29.96,North,353,0.0,2.0,89,0.00,,,0.00,,2013-02-23 09:31:00,
2013-02-23 03:42:00,29.0,26.0,29.96,North,353,0.0,2.0,89,0.00,,,0.00,,2013-02-23 09:42:00,
2013-02-23 03:51:00,29.0,26.0,29.96,North,354,2.0,2.0,90,0.00,,,0.00,,2013-02-23 09:51:00,
2013-02-23 04:01:00,28.0,25.0,29.95,North,354,0.0,3.0,90,0.00,,,0.00,,2013-02-23 10:01:00,
2013-02-23 04:11:00,28.0,25.0,29.96,North,354,0.0,3.0,90,0.00,,,0.00,,2013-02-23 10:11:00,
2013-02-23 04:21:00,28.0,25.0,29.96,North,354,0.0,3.0,90,0.00,,,0.00,,2013-02-23 10:21:00,
2013-02-23 04:31:00,28.0,25.0,29.96,North,354,0.0,3.0,90,0.00,,,0.00,,2013-02-23 10:31:00,
2013-02-23 04:42:00,28.0,25.0,29.96,North,354,0.0,3.0,90,0.00,,,0.00,,2013-02-23 10:42:00,
2013-02-23 04:51:00,28.0,25.0,29.97,North,353,0.0,2.0,90,0.00,,,0.00,,2013-02-23 10:51:00,
2013-02-23 05:02:00,28.0,25.0,29.96,North,353,0.0,3.0,90,0.00,,,0.00,,2013-02-23 11:02:00,
2013-02-23 05:11:00,28.0,25.0,29.96,North,353,0.0,3.0,90,0.00,,,0.00,,2013-02-23 11:11:00,
2013-02-23 05:21:00,28.0,25.0,29.96,North,353,0.0,3.0,90,0.00,,,0.00,,2013-02-23 11:21:00,
2013-02-23 05:32:00,28.0,25.0,29.97,North,353,0.0,5.0,90,0.00,,,0.00,,2013-02-23 11:32:00,
2013-02-23 05:42:00,28.0,25.0,29.97,North,353,0.0,5.0,90,0.00,,,0.00,,2013-02-23 11:42:00,
2013-02-23 05:52:00,27.0,24.0,29.97,North,353,0.0,5.0,90,0.00,,,0.00,,2013-02-23 11:52:00,
2013-02-23 06:02:00,27.0,25.0,29.97,North,353,0.0,0.0,91,0.00,,,0.00,,2013-02-23 12:02:00,
2013-02-23 06:11:00,27.0,25.0,29.97,North,353,0.0,0.0,91,0.00,,,0.00,,2013-02-23 12:11:00,
2013-02-23 06:21:00,27.0,25.0,29.98,North,353,0.0,0.0,91,0.00,,,0.00,,2013-02-23 12:21:00,
2013-02-23 06:32:00,27.0,24.0,29.97,North,354,1.0,3.0,90,0.00,,,0.00,,2013-02-23 12:32:00,
2013-02-23 06:42:00,27.0,24.0,29.97,North,354,1.0,3.0,90,0.00,,,0.00,,2013-02-23 12:42:00,
2013-02-23 06:52:00,27.0,25.0,29.97,North,353,2.0,3.0,91,0.00,,,0.00,,2013-02-23 12:52:00,
2013-02-23 07:01:00,27.0,24.0,29.96,North,353,0.0,5.0,90,0.00,,,0.00,,2013-02-23 13:01:00,
2013-02-23 07:11:00,27.0,24.0,29.96,North,353,0.0,5.0,90,0.00,,,0.00,,2013-02-23 13:11:00,
2013-02-23 07:22:00,27.0,24.0,29.96,North,353,0.0,5.0,90,0.00,,,0.00,,2013-02-23 13:22:00,
2013-02-23 07:32:00,28.0,25.0,29.97,North,353,0.0,3.0,90,0.00,,,0.00,,2013-02-23 13:32:00,
2013-02-23 07:42:00,29.0,26.0,29.96,North,352,0.0,3.0,89,0.00,,,0.00,,2013-02-23 13:42:00,
2013-02-23 07:52:00,29.0,26.0,29.96,North,352,0.0,3.0,89,0.00,,,0.00,,2013-02-23 13:52:00,
2013-02-23 08:02:00,29.0,25.0,29.96,North,353,0.0,5.0,86,0.00,,,0.00,,2013-02-23 14:02:00,
2013-02-23 08:11:00,29.0,25.0,29.97,North,353,1.0,5.0,85,0.00,,,0.00,,2013-02-23 14:11:00,
2013-02-23 08:21:00,29.0,25.0,29.97,North,353,1.0,5.0,85,0.00,,,0.00,,2013-02-23 14:21:00,
2013-02-23 08:32:00,30.0,25.0,29.97,North,353,2.0,3.0,82,0.00,,,0.00,,2013-02-23 14:32:00,
2013-02-23 08:42:00,30.0,25.0,29.97,North,353,2.0,3.0,82,0.00,,,0.00,,2013-02-23 14:42:00,
2013-02-23 08:52:00,31.0,26.0,29.97,North,354,2.0,3.0,82,0.00,,,0.00,,2013-02-23 14:52:00,
2013-02-23 09:01:00,32.0,25.0,29.97,East,88,5.0,5.0,76,0.00,,,0.00,,2013-02-23 15:01:00,
2013-02-23 09:11:00,32.0,25.0,29.97,East,88,5.0,5.0,76,0.00,,,0.00,,2013-02-23 15:11:00,
2013-02-23 09:21:00,32.0,25.0,29.97,NNE,25,0.0,6.0,74,0.00,,,0.00,,2013-02-23 15:21:00,
2013-02-23 09:32:00,34.0,26.0,29.97,ENE,69,5.0,8.0,72,0.00,,,0.00,,2013-02-23 15:32:00,
2013-02-23 09:42:00,34.0,26.0,29.97,ENE,69,5.0,8.0,72,0.00,,,0.00,,2013-02-23 15:42:00,
2013-02-23 09:51:00,34.0,26.0,29.96,ENE,68,7.0,8.0,73,0.00,,,0.00,,2013-02-23 15:51:00,
2013-02-23 10:01:00,35.0,25.0,29.96,ENE,76,5.0,11.0,67,0.00,,,0.00,,2013-02-23 16:01:00,
2013-02-23 10:11:00,35.0,25.0,29.96,ENE,76,5.0,11.0,67,0.00,,,0.00,,2013-02-23 16:11:00,
2013-02-23 10:21:00,35.0,26.0,29.96,East,82,5.0,11.0,69,0.00,,,0.00,,2013-02-23 16:21:00,
2013-02-23 10:31:00,36.0,25.0,29.96,East,79,7.0,10.0,65,0.00,,,0.00,,2013-02-23 16:31:00,
2013-02-23 10:42:00,36.0,25.0,29.96,East,79,7.0,10.0,65,0.00,,,0.00,,2013-02-23 16:42:00,
2013-02-23 10:51:00,36.0,26.0,29.95,ENE,65,5.0,10.0,68,0.00,,,0.00,,2013-02-23 16:51:00,
2013-02-23 11:01:00,37.0,27.0,29.95,ENE,72,5.0,11.0,67,0.00,,,0.00,,2013-02-23 17:01:00,
2013-02-23 11:11:00,38.0,27.0,29.95,NE,45,0.0,11.0,64,0.00,,,0.00,,2013-02-23 17:11:00,
2013-02-23 11:21:00,38.0,27.0,29.95,NE,45,0.0,11.0,64,0.00,,,0.00,,2013-02-23 17:21:00,
2013-02-23 11:32:00,40.0,28.0,29.96,NNE,23,3.0,11.0,63,0.00,,,0.00,,2013-02-23 17:32:00,
2013-02-23 11:42:00,40.0,28.0,29.96,NNE,23,3.0,11.0,63,0.00,,,0.00,,2013-02-23 17:42:00,
2013-02-23 11:52:00,40.0,28.0,29.96,ENE,58,5.0,11.0,62,0.00,,,0.00,,2013-02-23 17:52:00,
2013-02-23 12:01:00,40.0,26.0,29.96,North,349,2.0,7.0,57,0.00,,,0.00,,2013-02-23 18:01:00,
2013-02-23 12:12:00,40.0,26.0,29.96,North,349,2.0,7.0,57,0.00,,,0.00,,2013-02-23 18:12:00,
2013-02-23 12:21:00,41.0,28.0,29.95,WNW,288,7.0,7.0,60,0.00,,,0.00,,2013-02-23 18:21:00,
2013-02-23 12:32:00,41.0,27.0,29.95,WSW,251,3.0,7.0,56,0.00,,,0.00,,2013-02-23 18:32:00,
2013-02-23 12:42:00,41.0,27.0,29.95,WSW,251,3.0,7.0,56,0.00,,,0.00,,2013-02-23 18:42:00,
2013-02-23 12:51:00,42.0,28.0,29.94,West,278,3.0,7.0,58,0.00,,,0.00,,2013-02-23 18:51:00,
2013-02-23 13:01:00,43.0,27.0,29.92,NW,306,2.0,7.0,53,0.00,,,0.00,,2013-02-23 19:01:00,
2013-02-23 13:11:00,43.0,28.0,29.91,NNW,339,2.0,7.0,56,0.00,,,0.00,,2013-02-23 19:11:00,
2013-02-23 13:21:00,43.0,28.0,29.91,NNW,339,2.0,7.0,56,0.00,,,0.00,,2013-02-23 19:21:00,
2013-02-23 13:32:00,44.0,28.0,29.89,WNW,285,2.0,8.0,54,0.00,,,0.00,,2013-02-23 19:32:00,
2013-02-23 13:41:00,44.0,28.0,29.89,WNW,285,2.0,8.0,54,0.00,,,0.00,,2013-02-23 19:41:00,
2013-02-23 13:52:00,44.0,28.0,29.88,North,11,2.0,8.0,52,0.00,,,0.00,,2013-02-23 19:52:00,
2013-02-23 14:01:00,44.0,27.0,29.89,WSW,256,9.0,9.0,50,0.00,,,0.00,,2013-02-23 20:01:00,
2013-02-23 14:11:00,44.0,27.0,29.89,WSW,256,9.0,9.0,50,0.00,,,0.00,,2013-02-23 20:11:00,
2013-02-23 14:21:00,45.0,26.0,29.89,NW,323,3.0,7.0,47,0.00,,,0.00,,2013-02-23 20:21:00,
2013-02-23 14:32:00,45.0,28.0,29.89,North,11,2.0,9.0,51,0.00,,,0.00,,2013-02-23 20:32:00,
2013-02-23 14:41:00,45.0,28.0,29.89,North,11,2.0,9.0,51,0.00,,,0.00,,2013-02-23 20:41:00,
2013-02-23 14:52:00,45.0,27.0,29.89,NW,326,2.0,9.0,50,0.00,,,0.00,,2013-02-23 20:52:00,
2013-02-23 15:01:00,45.0,27.0,29.89,WNW,292,4.0,6.0,50,0.00,,,0.00,,2013-02-23 21:01:00,
2013-02-23 15:11:00,45.0,28.0,29.88,NNW,340,2.0,6.0,51,0.00,,,0.00,,2013-02-23 21:11:00,
2013-02-23 15:22:00,45.0,28.0,29.88,NNW,340,2.0,6.0,51,0.00,,,0.00,,2013-02-23 21:22:00,
2013-02-23 15:32:00,46.0,27.0,29.88,North,356,6.0,8.0,48,0.00,,,0.00,,2013-02-23 21:32:00,
2013-02-23 15:42:00,46.0,27.0,29.88,North,356,6.0,8.0,48,0.00,,,0.00,,2013-02-23 21:42:00,
2013-02-23 15:51:00,45.0,25.0,29.88,NW,320,1.0,8.0,46,0.00,,,0.00,,2013-02-23 21:51:00,
2013-02-23 16:01:00,46.0,27.0,29.89,NNW,335,1.0,7.0,47,0.00,,,0.00,,2013-02-23 22:01:00,
2013-02-23 16:11:00,45.0,28.0,29.89,NW,304,1.0,7.0,51,0.00,,,0.00,,2013-02-23 22:11:00,
2013-02-23 16:21:00,45.0,28.0,29.89,NW,304,1.0,7.0,51,0.00,,,0.00,,2013-02-23 22:21:00,
2013-02-23 16:31:00,44.0,27.0,29.89,WNW,289,2.0,6.0,51,0.00,,,0.00,,2013-02-23 22:31:00,
2013-02-23 16:42:00,44.0,27.0,29.89,WNW,289,2.0,6.0,51,0.00,,,0.00,,2013-02-23 22:42:00,
2013-02-23 16:51:00,43.0,27.0,29.89,WNW,289,1.0,6.0,53,0.00,,,0.00,,2013-02-23 22:51:00,
2013-02-23 17:01:00,43.0,27.0,29.89,NW,305,2.0,6.0,53,0.00,,,0.00,,2013-02-23 23:01:00,
2013-02-23 17:11:00,42.0,27.0,29.89,NNW,333,2.0,10.0,54,0.00,,,0.00,,2013-02-23 23:11:00,
2013-02-23 17:21:00,42.0,27.0,29.89,NNW,333,2.0,10.0,54,0.00,,,0.00,,2013-02-23 23:21:00,
2013-02-23 17:31:00,42.0,27.0,29.88,WNW,298,3.0,7.0,55,0.00,,,0.00,,2013-02-23 23:31:00,
2013-02-23 17:42:00,42.0,27.0,29.88,WNW,298,3.0,7.0,55,0.00,,,0.00,,2013-02-23 23:42:00,
2013-02-23 17:52:00,41.0,28.0,29.89,WNW,294,1.0,7.0,59,0.00,,,0.00,,2013-02-23 23:52:00,
2013-02-23 18:01:00,40.0,28.0,29.89,NW,316,1.0,7.0,61,0.00,,,0.00,,2013-02-24 00:01:00,
2013-02-23 18:11:00,39.0,27.0,29.90,NW,318,1.0,7.0,63,0.00,,,0.00,,2013-02-24 00:11:00,
2013-02-23 18:22:00,39.0,27.0,29.90,NW,318,1.0,7.0,63,0.00,,,0.00,,2013-02-24 00:22:00,
2013-02-23 18:32:00,38.0,27.0,29.90,NW,316,0.0,5.0,65,0.00,,,0.00,,2013-02-24 00:32:00,
2013-02-23 18:42:00,38.0,27.0,29.90,NW,316,0.0,5.0,65,0.00,,,0.00,,2013-02-24 00:42:00,
2013-02-23 18:52:00,37.0,27.0,29.91,NW,318,0.0,5.0,68,0.00,,,0.00,,2013-02-24 00:52:00,
2013-02-23 19:01:00,36.0,28.0,29.92,NW,318,0.0,1.0,72,0.00,,,0.00,,2013-02-24 01:01:00,
2013-02-23 19:11:00,36.0,28.0,29.92,NW,318,0.0,1.0,72,0.00,,,0.00,,2013-02-24 01:11:00,
2013-02-23 19:22:00,36.0,29.0,29.93,NW,311,2.0,2.0,76,0.00,,,0.00,,2013-02-24 01:22:00,
2013-02-23 19:31:00,35.0,28.0,29.92,WNW,302,0.0,6.0,75,0.00,,,0.00,,2013-02-24 01:31:00,
2013-02-23 19:42:00,35.0,28.0,29.92,WNW,302,0.0,6.0,75,0.00,,,0.00,,2013-02-24 01:42:00,
2013-02-23 19:51:00,34.0,27.0,29.92,WNW,302,0.0,6.0,74,0.00,,,0.00,,2013-02-24 01:51:00,
2013-02-23 20:01:00,34.0,27.0,29.92,WNW,302,0.0,3.0,74,0.00,,,0.00,,2013-02-24 02:01:00,
2013-02-23 20:11:00,34.0,27.0,29.92,WNW,302,0.0,3.0,74,0.00,,,0.00,,2013-02-24 02:11:00,
2013-02-23 20:21:00,33.0,26.0,29.93,WNW,302,0.0,3.0,76,0.00,,,0.00,,2013-02-24 02:21:00,
2013-02-23 20:32:00,32.0,26.0,29.93,WNW,302,0.0,5.0,79,0.00,,,0.00,,2013-02-24 02:32:00,
2013-02-23 20:42:00,32.0,26.0,29.93,WNW,302,0.0,5.0,79,0.00,,,0.00,,2013-02-24 02:42:00,
2013-02-23 20:52:00,32.0,26.0,29.93,WNW,302,0.0,5.0,78,0.00,,,0.00,,2013-02-24 02:52:00,
2013-02-23 21:02:00,31.0,25.0,29.93,WNW,301,0.0,1.0,78,0.00,,,0.00,,2013-02-24 03:02:00,
2013-02-23 21:11:00,31.0,26.0,29.93,WNW,302,0.0,1.0,80,0.00,,,0.00,,2013-02-24 03:11:00,
2013-02-23 21:21:00,31.0,26.0,29.93,WNW,302,0.0,1.0,80,0.00,,,0.00,,2013-02-24 03:21:00,
2013-02-23 21:32:00,30.0,25.0,29.93,WNW,302,0.0,0.0,82,0.00,,,0.00,,2013-02-24 03:32:00,
2013-02-23 21:42:00,30.0,25.0,29.93,WNW,302,0.0,0.0,82,0.00,,,0.00,,2013-02-24 03:42:00,
2013-02-23 21:52:00,30.0,26.0,29.94,WNW,302,0.0,0.0,84,0.00,,,0.00,,2013-02-24 03:52:00,
2013-02-23 22:01:00,29.0,25.0,29.94,WNW,302,0.0,0.0,85,0.00,,,0.00,,2013-02-24 04:01:00,
2013-02-23 22:11:00,29.0,25.0,29.94,WNW,302,0.0,0.0,85,0.00,,,0.00,,2013-02-24 04:11:00,
2013-02-23 22:21:00,29.0,25.0,29.94,WNW,302,0.0,0.0,84,0.00,,,0.00,,2013-02-24 04:21:00,
2013-02-23 22:32:00,29.0,25.0,29.94,WNW,302,2.0,2.0,84,0.00,,,0.00,,2013-02-24 04:32:00,
2013-02-23 22:42:00,29.0,25.0,29.94,WNW,302,2.0,2.0,84,0.00,,,0.00,,2013-02-24 04:42:00,
2013-02-23 22:52:00,29.0,25.0,29.94,NNW,343,0.0,2.0,85,0.00,,,0.00,,2013-02-24 04:52:00,
2013-02-23 23:01:00,29.0,26.0,29.96,NNW,342,0.0,6.0,87,0.00,,,0.00,,2013-02-24 05:01:00,
2013-02-23 23:11:00,28.0,24.0,29.94,NNW,343,0.0,6.0,86,0.00,,,0.00,,2013-02-24 05:11:00,
2013-02-23 23:22:00,28.0,24.0,29.94,NNW,343,0.0,6.0,86,0.00,,,0.00,,2013-02-24 05:22:00,
2013-02-23 23:32:00,29.0,25.0,29.94,NNW,343,0.0,2.0,86,0.00,,,0.00,,2013-02-24 05:32:00,
2013-02-23 23:42:00,29.0,25.0,29.95,NNW,342,0.0,2.0,85,0.00,,,0.00,,2013-02-24 05:42:00,
2013-02-23 23:52:00,29.0,25.0,29.95,NNW,342,0.0,2.0,85,0.00,,,0.00,,2013-02-24 05:52:00,